Hourly Weather Muriny-Bolshie

Today, 19 September, Sunday

Time Temperature Precipitation Wind Pressure Humidity
00:00 +6°C° 0.3 mm 4 mps 743 mmHg 93%
01:00 +6°C° 0.3 mm 4 mps 743 mmHg 93%
02:00 +6°C° 0 mm 4 mps 743 mmHg 93%
03:00 +6°C° 0.5 mm 5 mps 743 mmHg 93%
04:00 +5°C° 0.5 mm 5 mps 743 mmHg 93%
05:00 +5°C° 0.5 mm 5 mps 742 mmHg 93%
06:00 +5°C° 0.7 mm 5 mps 742 mmHg 93%
07:00 +5°C° 0.7 mm 5 mps 743 mmHg 92%
08:00 +5°C° 0 mm 5 mps 742 mmHg 92%
09:00 +5°C° 0.8 mm 5 mps 743 mmHg 92%
10:00 +4°C° 0.8 mm 6 mps 743 mmHg 92%
11:00 +4°C° 0.8 mm 6 mps 743 mmHg 92%
12:00 +4°C° 0.5 mm 6 mps 743 mmHg 92%
13:00 +4°C° 0.5 mm 6 mps 743 mmHg 93%
14:00 +4°C° 0.5 mm 6 mps 743 mmHg 93%
15:00 +4°C° 0.2 mm 6 mps 744 mmHg 93%
16:00 +4°C° 0.2 mm 6 mps 744 mmHg 93%
17:00 +4°C° 0.2 mm 6 mps 744 mmHg 94%
18:00 +4°C° 0.1 mm 6 mps 744 mmHg 94%
19:00 +4°C° 0.1 mm 6 mps 744 mmHg 94%
20:00 +4°C° 0.1 mm 6 mps 745 mmHg 94%
21:00 +3°C° 0.1 mm 5 mps 745 mmHg 94%
22:00 +3°C° 0.1 mm 5 mps 745 mmHg 95%
23:00 +3°C° 0.1 mm 5 mps 745 mmHg 95%

Tomorrow, 20 September, Monday

Time Temperature Precipitation Wind Pressure Humidity
00:00 +3°C° 0.1 mm 5 mps 746 mmHg 95%
01:00 +3°C° 0.1 mm 5 mps 746 mmHg 95%
02:00 +3°C° 0.1 mm 5 mps 746 mmHg 95%
03:00 +3°C° 0 mm 5 mps 746 mmHg 95%
04:00 +4°C° 0 mm 4 mps 746 mmHg 95%
05:00 +4°C° 0 mm 4 mps 746 mmHg 95%
06:00 +4°C° 0 mm 4 mps 747 mmHg 95%
07:00 +4°C° 0 mm 4 mps 747 mmHg 95%
08:00 +4°C° 0 mm 4 mps 747 mmHg 95%
09:00 +4°C° 0 mm 4 mps 747 mmHg 95%
10:00 +4°C° 0 mm 4 mps 748 mmHg 94%
11:00 +4°C° 0 mm 4 mps 748 mmHg 94%
12:00 +4°C° 0 mm 4 mps 748 mmHg 92%
13:00 +4°C° 0 mm 4 mps 748 mmHg 90%
14:00 +4°C° 0 mm 4 mps 748 mmHg 88%
15:00 +4°C° 0 mm 4 mps 748 mmHg 88%
16:00 +4°C° 0 mm 4 mps 749 mmHg 88%
17:00 +4°C° 0 mm 4 mps 749 mmHg 88%
18:00 +4°C° 0 mm 4 mps 749 mmHg 89%
19:00 +4°C° 0 mm 4 mps 749 mmHg 91%
20:00 +3°C° 0 mm 4 mps 750 mmHg 92%
21:00 +3°C° 0 mm 4 mps 750 mmHg 91%
22:00 +3°C° 0 mm 4 mps 750 mmHg 90%
23:00 +2°C° 0 mm 5 mps 750 mmHg 89%

Day after tomorrow, 21 September, Tuesday

Time Temperature Precipitation Wind Pressure Humidity
00:00 +3°C° 0 mm 4 mps 750 mmHg 90%
01:00 +3°C° 0 mm 4 mps 750 mmHg 90%
02:00 +3°C° 0 mm 4 mps 750 mmHg 91%
03:00 +3°C° 0 mm 4 mps 751 mmHg 91%
04:00 +3°C° 0 mm 4 mps 751 mmHg 92%
05:00 +3°C° 0 mm 4 mps 751 mmHg 92%
06:00 +4°C° 0 mm 4 mps 751 mmHg 91%
07:00 +4°C° 0 mm 4 mps 751 mmHg 91%
08:00 +4°C° 0 mm 4 mps 751 mmHg 91%
09:00 +4°C° 0 mm 4 mps 752 mmHg 88%
10:00 +5°C° 0 mm 5 mps 752 mmHg 86%
11:00 +5°C° 0 mm 5 mps 752 mmHg 83%
12:00 +6°C° 0.1 mm 5 mps 752 mmHg 81%
13:00 +6°C° 0.1 mm 5 mps 752 mmHg 79%
14:00 +6°C° 0.1 mm 5 mps 752 mmHg 77%
15:00 +7°C° 0 mm 4 mps 752 mmHg 75%
16:00 +7°C° 0 mm 4 mps 752 mmHg 73%
17:00 +8°C° 0 mm 3 mps 752 mmHg 71%
18:00 +8°C° 0 mm 3 mps 752 mmHg 75%
19:00 +7°C° 0 mm 2 mps 752 mmHg 78%
20:00 +8°C° 0 mm 1 mps 752 mmHg 81%
21:00 +7°C° 0 mm 1 mps 752 mmHg 84%
22:00 +6°C° 0 mm 1 mps 752 mmHg 87%
23:00 +6°C° 0 mm 1 mps 752 mmHg 89%

22 September, Wednesday

Time Temperature Precipitation Wind Pressure Humidity
00:00 +6°C° 0 mm 1 mps 752 mmHg 90%
01:00 +4°C° 0 mm 2 mps 752 mmHg 91%
02:00 +4°C° 0 mm 2 mps 752 mmHg 92%
03:00 +4°C° 0 mm 2 mps 752 mmHg 93%
04:00 +4°C° 0 mm 2 mps 752 mmHg 94%
05:00 +3°C° 0 mm 2 mps 752 mmHg 94%
06:00 +3°C° 0 mm 3 mps 752 mmHg 90%
07:00 +4°C° 0 mm 3 mps 752 mmHg 86%
08:00 +4°C° 0 mm 4 mps 752 mmHg 81%
09:00 +5°C° 0 mm 4 mps 752 mmHg 77%
10:00 +6°C° 0 mm 4 mps 752 mmHg 74%
11:00 +7°C° 0 mm 4 mps 752 mmHg 70%
12:00 +8°C° 0 mm 4 mps 752 mmHg 68%
13:00 +8°C° 0 mm 4 mps 751 mmHg 65%
14:00 +10°C° 0 mm 4 mps 751 mmHg 63%
15:00 +8°C° 0.1 mm 4 mps 751 mmHg 70%
16:00 +7°C° 0.1 mm 4 mps 751 mmHg 76%
17:00 +6°C° 0.1 mm 4 mps 751 mmHg 83%
18:00 +6°C° 0.2 mm 4 mps 751 mmHg 85%
19:00 +6°C° 0.2 mm 4 mps 751 mmHg 87%
20:00 +5°C° 0.2 mm 3 mps 750 mmHg 89%
21:00 +5°C° 0.1 mm 3 mps 750 mmHg 89%
22:00 +5°C° 0.1 mm 3 mps 750 mmHg 89%
23:00 +5°C° 0.1 mm 3 mps 750 mmHg 90%

23 September, Thursday

Time Temperature Precipitation Wind Pressure Humidity
00:00 +6°C° 0 mm 2 mps 750 mmHg 90%
01:00 +6°C° 0 mm 2 mps 749 mmHg 91%
02:00 +6°C° 0 mm 2 mps 749 mmHg 91%
03:00 +6°C° 0 mm 2 mps 749 mmHg 91%
04:00 +6°C° 0 mm 2 mps 749 mmHg 91%
05:00 +6°C° 0 mm 2 mps 749 mmHg 91%
06:00 +6°C° 0 mm 2 mps 749 mmHg 90%
07:00 +6°C° 0 mm 2 mps 749 mmHg 88%
08:00 +6°C° 0 mm 2 mps 749 mmHg 87%
09:00 +7°C° 0 mm 2 mps 748 mmHg 82%
10:00 +8°C° 0 mm 2 mps 748 mmHg 77%
11:00 +9°C° 0 mm 2 mps 748 mmHg 72%
12:00 +10°C° 0 mm 2 mps 748 mmHg 68%
13:00 +10°C° 0 mm 2 mps 747 mmHg 65%
14:00 +11°C° 0 mm 3 mps 747 mmHg 61%
15:00 +12°C° 0 mm 2 mps 747 mmHg 63%
16:00 +12°C° 0 mm 2 mps 746 mmHg 64%
17:00 +12°C° 0 mm 2 mps 746 mmHg 66%
18:00 +10°C° 0.1 mm 2 mps 745 mmHg 69%
19:00 +10°C° 0.1 mm 2 mps 745 mmHg 73%
20:00 +9°C° 0.1 mm 2 mps 745 mmHg 77%
21:00 +9°C° 0.1 mm 3 mps 744 mmHg 80%
22:00 +9°C° 0.1 mm 3 mps 744 mmHg 83%
23:00 +8°C° 0.1 mm 4 mps 743 mmHg 86%

24 September, Friday

Time Temperature Precipitation Wind Pressure Humidity
00:00 +10°C° 0.6 mm 4 mps 743 mmHg 89%
01:00 +9°C° 0.6 mm 5 mps 742 mmHg 92%
02:00 +9°C° 0.6 mm 5 mps 741 mmHg 96%
03:00 +9°C° 1.3 mm 5 mps 741 mmHg 96%
04:00 +9°C° 1.3 mm 6 mps 740 mmHg 96%
05:00 +10°C° 1.3 mm 6 mps 740 mmHg 95%
06:00 +10°C° 0.9 mm 6 mps 740 mmHg 93%
07:00 +10°C° 0.9 mm 5 mps 740 mmHg 91%
08:00 +10°C° 0.9 mm 5 mps 740 mmHg 89%
09:00 +10°C° 0.1 mm 6 mps 741 mmHg 85%
10:00 +11°C° 0.1 mm 6 mps 741 mmHg 82%
11:00 +11°C° 0.1 mm 6 mps 742 mmHg 79%
12:00 +13°C° 0.1 mm 6 mps 742 mmHg 75%
13:00 +13°C° 0.1 mm 6 mps 742 mmHg 71%
14:00 +14°C° 0.1 mm 6 mps 742 mmHg 67%
15:00 +13°C° 0.1 mm 6 mps 742 mmHg 70%
16:00 +13°C° 0.1 mm 6 mps 742 mmHg 73%
17:00 +11°C° 0.1 mm 6 mps 742 mmHg 76%
18:00 +10°C° 0.2 mm 6 mps 742 mmHg 81%
19:00 +9°C° 0.2 mm 6 mps 742 mmHg 85%
20:00 +8°C° 0.2 mm 6 mps 742 mmHg 89%
21:00 +8°C° 0.3 mm 6 mps 742 mmHg 90%
22:00 +9°C° 0.3 mm 6 mps 741 mmHg 90%
23:00 +9°C° 0.3 mm 6 mps 741 mmHg 91%
Show more

We Need Your Consent

Meteoprog and our Service Providers may store and access personal data such as cookies, device identifiers or other similar technologies on your device and process such data to personalise content and ads, as well as provide social media features and to analyse the traffic.

  • Store and/or access information on your device

    Cookies, device identifiers or other information can be stored or accessed on your device for the purposes indicated above.

  • Personalised ads and content, ad and content measurement, audience insights, and products development

    Ads and content can be personalised based on a profile. More data can be added to better personalise ads and content. Ad and content performance can be measured. Insights about the audience who saw the ads and content can be derived. Such data can be used to develop or improve user’s experience, systems and software.

By clicking ‘I Agree’ you will allow the use of indicated cookies, device identifiers, web beacons or other similar technologies. Your settings can be changed in the browser on your device.

For certain purposes, legitimate interests may be relied on, rather than consent. You can read more about this in our Privacy and Cookie Policy.